DW7901 Weather Reports


time (UTC)temp
C
wind
direction
speed
KPH
gust
KPH
rain 1hr
cm
rain 24hr
cm
rain mn
cm
humidity
%
barometer
mb
20260901143004 25 342 6.4 24.1 0.00 0.30 0.03 32 1020.9
20260901142006 26 287 4.8 41.8 0.00 0.30 0.03 30 1021.0
20260901141004 26 208 24.1 41.8 0.00 0.30 0.03 29 1020.7
20260901135004 24 281 16.1 27.4 0.00 0.30 0.03 34 1021.1
20260901134005 25 296 9.7 27.4 0.00 0.30 0.03 31 1020.8
20260901133005 26 331 6.4 35.4 0.00 0.30 0.03 29 1020.8
20260901132004 26 143 11.3 30.6 0.00 0.30 0.03 27 1020.7
20260901131006 27 188 11.3 33.8 0.00 0.30 0.03 26 1020.7
20260901130004 26 347 8.0 40.2 0.00 0.30 0.03 29 1020.5
20260901125004 26 256 12.9 37.0 0.00 0.30 0.03 29 1020.6
20260901124005 27 322 9.7 27.4 0.00 0.30 0.03 28 1020.3
20260901123004 26 284 8.0 22.5 0.00 0.30 0.03 29 1020.4
20260901122006 25 304 6.4 33.8 0.00 0.30 0.03 31 1020.5
20260901121005 26 130 14.5 32.2 0.00 0.30 0.03 29 1020.4
20260901120004 26 253 9.7 27.4 0.00 0.30 0.03 31 1020.3
20260901115004 25 259 11.3 33.8 0.00 0.30 0.03 32 1020.3
20260901114005 25 287 12.9 35.4 0.00 0.30 0.03 35 1020.6
20260901113004 25 304 17.7 37.0 0.00 0.30 0.03 35 1020.5
20260901112005 25 267 9.7 35.4 0.00 0.30 0.03 35 1020.3
20260901111004 25 284 12.9 35.4 0.00 0.30 0.03 35 1020.4
20260901105005 25 286 11.3 27.4 0.00 0.30 0.03 38 1020.4
20260901104005 25 266 12.9 33.8 0.00 0.30 0.03 40 1020.0
20260901102007 26 271 11.3 25.7 0.00 0.30 0.03 39 1020.1
20260901101004 25 345 6.4 24.1 0.00 0.30 0.03 41 1019.6
20260901100004 23 290 6.4 22.5 0.00 0.30 0.03 45 1019.8
20260901094005 25 286 12.9 24.1 0.00 0.30 0.03 43 1019.9
20260901093004 25 309 8.0 22.5 0.00 0.30 0.03 42 1019.8
20260901092005 25 342 3.2 20.9 0.00 0.30 0.03 44 1019.7
20260901091005 24 234 14.5 30.6 0.00 0.30 0.03 46 1019.8
20260901085004 24 246 6.4 24.1 0.00 0.30 0.03 48 1019.5
20260901084005 24 281 6.4 16.1 0.00 0.30 0.03 51 1019.8
20260901082007 23 272 6.4 17.7 0.00 0.30 0.03 50 1019.5
20260901081004 22 291 8.0 17.7 0.00 0.30 0.03 53 1019.7
20260901080005 22 270 8.0 19.3 0.00 0.30 0.03 52 1019.7
20260901075004 22 271 6.4 12.9 0.00 0.30 0.03 55 1019.4
20260901074006 22 244 4.8 16.1 0.00 0.30 0.03 57 1019.4
20260901073004 21 239 6.4 16.1 0.00 0.30 0.03 63 1019.3
20260901072006 21 270 9.7 19.3 0.00 0.30 0.03 65 1019.3
20260901071005 21 320 3.2 16.1 0.00 0.30 0.03 70 1019.1
20260901070004 20 270 6.4 17.7 0.00 0.30 0.03 71 1019.0
20260901065005 20 265 3.2 12.9 0.00 0.30 0.03 75 1018.9
20260901064004 20 256 3.2 17.7 0.00 0.30 0.03 81 1019.1
20260901063004 19 284 3.2 11.3 0.00 0.30 0.03 91 1018.9
20260901060005 17 275 1.6 6.4 0.00 0.30 0.03 95 1018.9
20260831210004 17 1 0.0 1.6 0.00 0.28 0.28 94 1017.9
20260831205003 17 1 0.0 3.2 0.00 0.28 0.28 94 1017.8
20260831204004 17 1 0.0 3.2 0.00 0.28 0.28 94 1017.8
20260831203003 17 0 0.0 0.0 0.00 0.28 0.28 93 1017.8
20260831201004 17 0 0.0 0.0 0.00 0.28 0.28 93 1017.7
20260831195004 17 1 0.0 4.8 0.00 0.28 0.28 93 1017.9
20260831194004 17 1 1.6 3.2 0.00 0.28 0.28 93 1017.9
20260831193004 18 358 1.6 3.2 0.00 0.28 0.28 94 1017.9
20260831192004 18 83 1.6 3.2 0.00 0.28 0.28 94 1017.8
20260831191004 18 27 3.2 4.8 0.00 0.28 0.28 94 1017.5
20260831190004 18 69 3.2 6.4 0.00 0.28 0.28 94 1017.5
20260831185003 18 89 3.2 6.4 0.00 0.28 0.28 94 1017.3
20260831183004 18 1 4.8 6.4 0.00 0.28 0.28 94 1017.6
20260831182004 18 19 4.8 9.7 0.00 0.28 0.28 94 1017.4
20260831181003 18 45 6.4 8.0 0.00 0.28 0.28 93 1017.4
20260831180004 18 19 6.4 11.3 0.00 0.28 0.28 94 1017.3
20260831175005 18 4 4.8 8.0 0.00 0.28 0.28 93 1017.5
20260831174005 18 9 3.2 12.9 0.03 0.28 0.28 93 1017.7
20260831173003 18 39 6.4 12.9 0.03 0.28 0.28 94 1017.6
20260831172004 18 106 4.8 9.7 0.03 0.28 0.28 94 1017.3
20260831171004 18 132 3.2 6.4 0.03 0.28 0.28 94 1017.5
20260831165004 18 159 6.4 20.9 0.10 0.28 0.28 93 1017.6
20260831164004 19 174 6.4 33.8 0.10 0.23 0.23 93 1018.0
20260831163003 19 294 1.6 9.7 0.10 0.23 0.23 92 1017.6
20260831162004 19 63 0.0 8.0 0.13 0.23 0.23 91 1017.0
20260831160004 19 88 0.0 4.8 0.20 0.23 0.23 90 1017.3
20260831155004 19 303 1.6 14.5 0.18 0.18 0.18 86 1017.3
20260831153003 20 122 4.8 14.5 0.15 0.15 0.15 82 1016.4
20260831152004 20 169 8.0 27.4 0.13 0.13 0.13 81 1017.1
20260831151003 20 208 11.3 27.4 0.05 0.05 0.05 72 1018.1
20260831150005 22 331 6.4 16.1 0.03 0.03 0.03 58 1017.0
20260831145003 23 317 6.4 17.7 0.00 0.00 0.00 53 1016.3
20260831144004 25 342 6.4 27.4 0.00 0.00 0.00 50 1015.9